Theta_e
325 323 325 325 326 324 322 323 324 325 325 327 328 328 329 330 330 329 329 329 328 327 328 329 330 329 329 328 327 328 329 329 331 328 326 328 323 324 326 326 326 327 327 324 323 322 321 319 321 326 325 324 325 326 329 329 328 329 330 332 331 330 332
326 325 325 325 323 324 322 322 324 323 324 325 325 326 327 327 327 326 326 327 327 327 325 324 324 325 328 330 329 328 328 327 328 327 326 324 325 323 325 327 325 324 324 324 324 326 323 321 318 320 320 322 319 320 320 320 320 320 321 322 323 324 327
324 324 324 323 322 323 322 322 323 323 323 324 324 325 325 324 325 325 325 325 326 325 323 324 325 326 326 327 327 328 327 327 326 326 325 324 325 326 326 325 324 323 323 323 322 322 321 322 316 314 319 319 311 312 317 316 318 317 317 319 319 320 324
325 324 322 322 321 322 321 321 322 322 323 323 324 324 325 325 326 326 326 325 326 326 323 322 324 323 324 324 323 324 324 325 326 326 323 323 324 324 323 322 319 320 320 318 320 322 320 316 315 314 316 314 311 310 313 316 317 314 314 315 315 316 317
325 324 323 322 323 322 321 320 320 321 321 322 324 323 324 325 325 325 325 325 324 325 323 324 323 322 322 322 322 323 323 323 324 324 323 321 321 320 320 319 318 319 318 317 317 322 322 319 318 315 312 311 310 310 312 314 314 313 313 313 313 313 314
326 326 325 324 324 322 322 320 320 319 320 320 321 322 323 324 325 324 324 323 323 324 324 322 322 323 323 323 322 322 322 321 321 323 319 321 323 319 317 320 318 316 316 317 318 318 321 321 319 314 313 313 309 309 311 313 311 312 312 312 312 312 312
325 326 325 324 324 324 322 321 320 320 319 321 321 323 322 323 323 325 326 325 324 323 323 323 323 322 323 319 321 321 321 321 322 322 320 320 320 320 321 317 317 316 317 318 318 317 317 318 316 315 313 313 312 308 310 311 312 309 309 311 312 312 313
324 323 323 324 323 322 322 322 322 322 320 321 321 322 322 323 324 324 325 325 323 323 323 323 322 322 323 320 320 321 321 321 321 320 319 320 319 319 320 318 317 316 316 315 316 316 315 317 317 316 314 309 309 310 308 308 309 309 307 308 310 311 312
323 324 322 321 321 321 320 320 320 322 322 321 322 322 323 323 324 324 324 324 323 323 324 323 322 320 321 321 319 320 318 318 320 319 318 319 319 319 318 318 316 314 316 315 315 316 315 317 317 318 317 313 309 306 308 307 307 306 309 307 307 309 310
322 322 322 322 320 319 317 317 320 322 323 323 322 323 323 323 324 324 323 323 323 324 324 323 322 320 320 320 319 319 318 319 319 318 318 316 317 318 317 318 315 315 315 317 316 316 317 317 316 316 316 315 314 309 306 306 307 305 305 308 304 305 307
324 324 324 322 321 318 317 318 320 321 322 323 323 323 324 323 323 322 323 322 323 323 324 323 321 321 321 319 319 319 319 320 318 318 318 317 317 318 317 317 316 314 317 317 316 319 318 317 315 314 314 314 316 311 309 306 305 309 306 307 307 304 304
325 324 323 322 322 321 319 318 320 323 323 321 322 323 323 323 323 321 322 321 321 322 322 323 322 321 321 320 320 318 320 320 318 317 317 318 318 318 316 315 316 314 318 318 318 318 318 317 315 313 314 315 315 315 312 309 304 306 311 305 305 306 304
323 322 323 322 321 321 320 318 319 321 321 320 321 322 322 322 322 322 321 320 320 320 321 321 322 321 321 321 321 320 321 320 317 316 316 317 315 317 315 315 315 313 315 315 316 317 316 317 317 313 313 312 313 316 313 310 307 305 309 305 306 305 306
324 323 323 322 323 322 321 320 320 320 320 320 319 320 320 321 321 321 321 320 320 320 320 320 321 322 321 320 320 320 320 320 318 318 318 317 317 316 314 313 313 314 317 315 315 315 314 313 314 314 313 311 311 314 312 310 306 305 306 308 306 304 306
323 323 324 324 323 323 323 322 322 321 321 320 322 321 319 322 322 322 321 321 320 320 320 320 321 321 320 320 320 320 320 319 319 318 319 317 317 317 317 313 312 314 314 313 314 310 311 311 310 309 309 309 307 309 312 307 306 304 303 306 304 306 305
323 324 324 324 323 322 323 323 322 323 322 322 322 322 321 323 322 322 321 321 321 321 321 321 323 322 322 320 319 319 320 319 318 318 318 318 316 317 316 315 314 315 315 314 314 313 314 311 311 309 309 308 308 309 309 309 308 306 305 304 306 304 305
324 324 324 325 324 324 324 324 324 324 323 323 322 324 324 323 322 322 321 321 321 321 321 321 322 322 320 320 320 319 319 319 319 318 318 317 317 317 317 316 315 315 315 314 313 312 312 313 312 310 309 308 309 308 310 311 312 309 307 305 304 304 305
324 324 325 325 325 325 326 326 326 323 323 323 323 324 325 324 323 322 322 320 320 320 321 321 321 321 323 323 321 320 320 319 320 319 320 319 318 317 317 317 316 315 315 314 314 312 312 312 310 311 309 307 307 308 309 309 310 310 309 308 305 305 306
322 321 322 324 325 326 326 325 324 324 324 323 323 324 324 323 324 323 322 321 322 322 320 319 319 319 320 322 323 322 321 320 319 318 319 318 318 318 318 318 318 317 315 314 314 314 313 312 310 311 309 306 306 308 309 309 310 312 311 309 308 305 306
321 321 322 325 326 325 325 326 325 324 324 324 324 324 323 323 323 323 321 322 322 322 321 320 320 321 322 322 323 322 322 321 320 320 319 319 319 318 319 318 319 319 317 316 315 314 314 313 312 311 310 309 307 308 308 308 308 310 310 309 308 308 306
320 322 323 324 324 325 325 326 326 326 325 325 325 323 323 323 324 323 322 321 322 322 322 321 321 322 322 323 322 322 321 320 320 321 321 320 320 319 319 319 318 319 319 318 317 317 316 314 312 312 311 309 308 308 307 306 308 309 309 309 308 307 306
322 322 323 323 324 324 324 324 324 323 323 324 324 324 323 323 323 323 322 322 322 322 322 321 321 322 322 322 322 322 322 321 321 320 320 320 320 319 319 319 319 319 319 317 310 311 311 311 313 311 310 309 307 306 306 306 307 308 308 309 307 307 306
321 322 321 321 322 321 321 322 322 322 322 322 322 321 321 322 321 321 321 321 322 322 321 322 316 307 306 318 322 322 322 322 322 321 320 320 319 319 318 319 320 316 311 309 305 301 300 300 304 310 312 309 307 307 307 306 306 308 309 308 307 306 305
320 320 321 321 322 320 320 321 321 321 321 320 320 320 321 320 321 321 321 321 321 321 321 318 297 296 296 297 313 320 321 321 322 321 321 321 320 320 319 318 319 317 313 309 310 300 299 298 297 296 298 302 304 308 307 306 306 307 305 306 305 304 302
318 318 319 319 319 318 318 318 318 318 318 316 316 317 318 318 318 318 319 319 320 320 319 296 293 293 294 294 298 314 318 320 321 321 321 321 321 321 320 321 322 321 320 318 316 313 305 298 296 295 294 295 295 294 298 306 304 301 303 303 302 302 301
318 317 317 316 316 316 316 316 315 315 315 315 316 317 315 315 316 316 316 316 318 316 317 293 291 291 292 293 293 300 314 316 317 319 320 320 321 321 321 320 321 321 320 313 313 316 316 309 295 294 294 293 292 292 291 291 294 307 306 305 304 302 302
312 313 314 315 316 316 317 317 316 316 314 314 316 315 314 315 313 315 315 317 315 314 314 295 290 290 291 290 290 295 313 313 315 315 316 317 319 320 320 320 320 320 319 318 317 315 314 311 305 303 303 305 303 299 294 292 292 293 301 306 304 303 304
310 311 312 312 313 313 313 313 314 315 316 317 318 317 316 315 314 314 313 314 316 316 313 292 292 291 291 291 290 297 311 311 311 312 313 313 315 316 318 318 318 317 316 315 314 311 312 310 307 306 305 305 305 304 304 304 304 304 303 303 303 303 302
310 310 310 310 310 310 312 313 313 312 312 312 312 312 311 314 314 314 312 314 316 315 311 291 291 291 291 292 295 311 312 313 313 313 311 311 311 312 313 314 315 313 312 311 299 295 302 309 307 306 305 304 303 302 300 294 292 294 300 302 302 301 300
307 307 309 309 309 310 310 310 310 311 312 312 312 312 312 311 310 312 313 314 315 314 314 298 291 291 292 292 303 315 314 312 311 309 308 309 310 310 310 311 312 310 309 306 294 293 295 301 307 306 305 304 303 303 301 298 293 291 290 290 289 289 289
307 306 307 308 309 310 311 312 312 313 312 312 311 311 310 309 308 308 310 311 309 312 312 300 291 292 293 292 304 315 313 312 309 308 306 306 307 306 303 300 305 308 306 302 291 292 294 303 307 305 304 303 302 300 297 296 296 293 290 290 289 289 289
306 307 306 307 309 309 311 311 311 312 314 314 312 310 309 310 308 307 306 306 298 306 310 303 292 291 292 293 306 315 312 311 309 307 306 304 304 304 302 297 295 298 299 294 289 290 293 302 306 305 304 303 300 298 295 295 294 294 295 295 296 297 295
309 309 309 310 310 311 310 309 310 311 310 310 310 309 308 309 309 307 304 305 305 306 308 309 300 289 292 293 294 312 312 311 308 306 306 305 304 303 302 300 295 289 289 289 289 289 290 293 301 301 301 300 298 294 295 295 294 295 295 295 296 296 296
310 310 310 309 309 309 309 310 309 308 308 306 307 306 306 306 305 303 302 303 305 305 305 307 304 290 291 293 293 298 312 311 309 307 305 304 304 302 301 299 298 290 288 289 289 289 289 290 292 298 298 296 294 293 293 294 293 291 295 294 295 295 296
310 311 309 309 308 307 306 305 304 303 302 303 304 304 303 304 305 303 302 302 304 304 300 296 305 294 290 291 292 292 307 310 308 307 305 304 302 302 300 299 298 291 288 288 288 289 289 290 290 296 293 288 287 288 294 294 295 295 295 295 295 294 295
308 308 309 309 308 307 304 304 304 305 306 306 307 306 307 306 307 306 305 303 302 302 301 299 291 299 290 290 290 291 292 300 293 307 306 303 302 300 300 298 295 289 288 288 288 289 289 289 291 292 287 287 288 288 292 295 294 295 294 294 294 293 293
308 308 308 308 308 309 306 306 306 307 308 308 308 307 306 306 307 307 306 304 303 301 300 301 294 290 294 289 290 290 290 291 293 305 305 303 301 300 300 298 294 288 288 288 287 288 288 289 290 287 287 287 288 290 294 294 294 293 292 291 292 293 293
Wind_Speed
5 5 5 4 4 5 4 3 3 3 3 3 3 3 3 3 3 3 3 2 2 2 2 2 2 2 2 2 1 1 1 1 1 1 1 1 3 2 1 1 2 3 5 3 2 2 2 3 4 5 8 10 11 8 7 7 7 6 6 5 4 3 2
5 5 5 5 5 4 6 3 3 3 3 3 3 4 4 4 4 4 3 3 3 3 2 3 3 2 3 3 3 3 3 2 3 2 2 3 2 2 3 2 2 0 3 3 3 1 1 3 3 2 6 8 10 8 7 7 6 6 6 5 4 4 3
5 5 5 6 5 4 6 4 4 3 3 3 3 4 4 4 4 4 4 4 3 3 3 4 3 3 3 4 3 3 2 2 2 2 2 2 2 2 1 1 1 3 3 3 2 4 4 3 4 4 4 6 8 6 6 6 6 6 6 6 7 7 6
8 7 7 6 5 5 6 5 4 3 2 3 3 3 4 4 4 4 4 4 3 3 3 4 4 4 4 4 3 4 3 3 2 3 4 3 2 2 2 2 3 2 3 3 2 2 3 5 7 6 6 8 10 9 7 6 6 8 8 8 8 8 8
9 7 8 8 7 7 6 6 4 4 3 3 3 4 3 3 3 4 4 4 4 4 4 3 3 3 3 3 3 3 3 3 3 3 3 3 3 4 4 3 4 3 3 3 3 1 3 5 6 7 7 8 9 8 7 8 9 9 9 9 9 8 8
7 7 7 7 7 7 5 6 5 5 4 4 3 4 3 3 3 4 4 4 4 4 3 4 3 3 2 3 3 4 4 4 3 3 4 4 3 4 4 3 3 4 4 2 2 2 2 3 6 7 6 5 8 7 5 5 7 8 8 8 8 8 8
6 6 6 6 5 5 5 5 6 6 5 4 4 4 3 3 2 3 4 4 4 4 3 4 3 3 3 3 3 4 4 3 3 5 5 4 4 4 2 4 5 5 4 3 3 2 2 4 5 7 7 6 6 7 5 5 4 5 7 7 8 8 8
6 6 5 5 5 5 4 5 4 4 5 4 4 3 3 3 3 3 3 5 4 4 4 3 3 3 4 4 4 4 4 3 3 3 4 4 4 4 5 5 5 5 4 4 4 4 2 1 3 6 8 9 6 5 6 6 7 8 6 7 8 8 8
5 5 4 4 3 4 5 6 5 4 4 4 3 4 3 3 3 4 4 4 4 5 4 4 4 4 4 4 4 4 4 3 3 5 3 4 4 5 5 4 5 5 4 4 5 4 4 3 3 3 4 7 8 7 5 6 5 6 5 5 8 9 8
7 8 7 8 6 4 6 5 5 5 5 4 4 3 4 3 3 3 4 4 3 3 4 4 4 4 4 4 4 4 4 3 4 4 3 4 3 3 4 4 5 4 4 4 4 4 4 4 4 2 1 3 4 7 7 6 5 4 6 5 4 7 7
8 7 7 8 7 6 4 3 4 5 5 4 4 4 5 5 4 4 4 4 3 3 3 3 3 4 4 4 4 4 3 3 3 3 3 3 3 3 3 3 3 4 3 4 4 3 4 4 4 3 2 1 1 3 5 6 5 4 4 5 5 5 6
5 6 6 6 6 7 7 5 5 4 4 4 4 4 5 5 4 4 4 4 3 3 3 3 3 3 3 4 4 4 3 2 2 3 2 2 1 1 2 3 2 3 2 3 3 3 3 3 4 4 4 3 2 3 6 7 7 3 2 4 4 4 5
6 7 7 7 6 6 6 5 5 5 5 4 3 3 3 5 5 4 3 3 4 3 3 3 2 3 2 2 2 2 3 2 2 2 3 1 1 0 2 2 2 2 2 2 3 3 3 3 2 4 5 5 5 4 4 5 7 6 2 3 3 3 4
7 6 7 7 6 6 6 7 6 5 5 5 5 5 4 5 5 5 4 4 3 3 3 3 2 2 2 2 2 1 1 1 2 2 2 3 2 1 1 2 3 2 1 2 3 3 3 3 3 4 4 5 6 5 5 6 7 7 4 1 2 3 2
5 6 7 7 6 6 7 7 8 8 7 6 5 5 5 5 5 6 6 5 3 2 2 3 3 2 2 2 2 1 1 1 2 1 2 2 3 2 2 2 3 3 1 2 3 4 4 3 4 4 4 4 6 5 4 6 6 5 5 4 3 2 3
6 7 7 7 7 7 6 7 7 7 7 7 6 5 6 5 6 6 6 5 4 3 2 1 1 2 2 0 1 1 1 1 2 3 3 3 2 2 3 3 3 3 2 3 3 3 3 3 2 4 4 3 5 4 4 5 5 5 5 4 2 3 2
8 7 7 6 8 7 7 7 7 7 7 7 7 5 6 7 7 7 5 5 4 3 2 1 1 0 0 1 0 1 0 2 3 3 4 5 4 3 4 4 4 4 4 4 4 4 3 3 3 4 4 4 4 4 3 3 3 4 4 4 2 1 2
5 5 6 6 8 8 7 6 5 6 6 6 6 5 5 5 7 6 5 4 4 3 3 2 2 2 2 2 3 3 2 3 4 5 4 5 5 6 6 6 5 4 4 4 4 4 4 5 4 4 5 4 5 4 3 3 4 5 4 4 4 2 1
7 3 4 5 7 7 7 6 6 4 5 6 5 3 3 4 5 5 5 6 5 4 3 2 3 4 6 4 3 3 2 3 3 4 5 5 6 6 7 8 5 5 6 6 5 5 5 7 5 4 4 3 4 4 4 4 3 4 5 4 4 4 2
7 7 7 6 5 6 6 6 7 7 6 6 6 4 3 3 2 2 4 4 3 3 3 4 2 3 5 5 5 4 3 4 4 4 5 6 6 7 7 7 7 6 7 8 8 7 6 6 5 6 5 4 3 3 2 2 1 4 4 5 3 2 4
7 7 5 5 5 6 6 6 5 5 5 5 4 5 4 4 4 4 4 3 3 2 2 1 2 4 4 5 4 4 4 4 4 4 5 5 5 6 7 7 7 7 8 8 9 7 7 7 5 6 5 4 4 4 3 2 2 2 3 3 2 3 2
7 8 7 7 7 6 5 5 5 5 5 4 3 3 3 3 2 2 3 3 3 3 3 2 1 2 4 5 4 5 4 4 4 4 5 5 5 5 6 5 6 6 6 7 7 6 5 4 4 6 5 5 5 5 5 4 4 3 2 3 3 3 2
6 6 6 6 6 5 5 5 5 5 5 3 3 3 3 2 1 1 1 2 2 1 1 0 2 2 4 4 5 4 4 4 4 4 4 5 4 2 3 6 6 7 6 8 8 5 5 8 8 7 4 6 7 6 6 5 5 4 3 3 2 1 1
4 4 4 4 3 4 5 5 5 4 4 3 3 3 3 3 2 1 1 1 2 2 1 2 7 3 1 2 3 4 4 4 4 4 5 5 5 3 5 7 6 5 5 5 5 10 11 10 10 6 6 7 8 8 7 5 3 2 2 1 2 1 0
3 2 1 1 2 3 4 4 4 3 3 4 4 4 4 3 3 3 2 3 3 3 3 5 4 4 2 0 2 3 3 3 3 3 4 4 4 2 3 5 4 2 2 1 2 5 8 10 9 8 8 8 4 2 3 2 3 3 2 2 2 1 1
3 2 2 2 3 3 4 5 5 6 5 4 4 5 4 4 4 4 4 4 3 3 2 4 4 4 3 2 1 2 1 3 3 3 3 3 4 4 3 4 4 4 3 1 4 5 5 5 5 7 9 8 6 5 6 7 6 1 3 2 2 3 2
3 3 3 3 3 3 3 3 3 3 4 4 4 4 4 5 4 4 3 3 3 3 3 2 0 3 4 3 2 3 0 1 2 3 3 3 3 4 3 4 4 4 4 3 1 1 3 5 7 7 7 5 5 5 7 8 7 6 4 1 0 1 2
5 4 4 4 4 4 4 4 4 3 2 3 3 4 4 4 3 3 3 2 3 3 2 2 2 4 6 6 5 3 3 2 2 2 3 3 4 3 3 2 2 3 3 3 2 1 2 5 7 6 6 6 5 5 5 5 5 3 3 3 3 4 3
5 5 5 4 5 4 3 3 4 3 3 3 3 3 3 3 3 3 2 2 3 4 3 2 3 6 6 7 6 4 3 3 2 2 2 3 2 2 2 2 1 2 2 2 6 3 1 4 7 8 7 6 6 6 6 6 8 9 7 5 4 3 3
5 4 3 4 4 4 4 3 2 2 4 4 4 3 3 2 2 2 3 2 3 3 3 4 6 5 6 6 4 3 3 3 3 3 3 3 3 4 4 3 3 3 4 5 6 7 5 2 5 6 6 6 5 4 5 4 7 8 8 8 8 7 6
7 5 4 4 4 3 3 3 4 3 6 6 5 4 4 3 2 2 2 3 3 2 2 4 6 6 3 3 1 3 2 3 4 4 3 3 3 5 8 11 6 5 6 6 7 8 4 2 4 5 5 5 4 3 3 2 2 3 5 5 4 4 3
7 7 7 5 5 5 4 3 2 1 2 3 4 3 3 4 3 2 2 2 3 1 2 3 5 6 4 2 2 2 2 3 3 3 3 4 4 5 6 9 12 10 8 8 11 10 8 4 5 4 3 3 3 3 2 1 2 2 1 2 2 2 3
5 6 6 5 5 5 4 3 3 2 1 2 3 2 2 2 3 3 2 2 2 1 1 2 4 5 4 1 5 1 2 2 3 4 3 4 5 5 6 7 8 10 11 13 13 13 12 10 6 4 2 2 2 3 3 2 2 1 0 1 1 1 2
5 5 5 6 5 4 4 4 4 3 3 1 2 2 2 2 2 2 2 1 1 1 1 1 2 5 4 2 1 3 0 1 3 4 4 4 4 5 5 6 6 8 11 12 12 13 12 12 9 6 5 5 4 3 1 1 2 2 1 1 2 3 3
4 3 4 4 5 4 2 3 4 3 3 3 3 3 3 2 3 2 2 1 1 1 2 1 1 3 3 1 3 3 2 2 3 5 4 4 4 4 5 5 5 6 10 11 11 12 12 11 9 7 6 6 5 3 2 2 1 1 2 2 3 4 5
5 3 4 6 6 6 4 4 4 4 5 5 5 5 4 4 4 3 3 2 2 1 1 2 4 1 3 0 2 2 1 2 1 3 5 5 5 6 6 6 6 7 10 11 12 11 11 11 10 8 8 7 6 2 2 1 2 3 3 4 5 5 5
6 5 6 6 6 6 6 5 5 5 6 6 6 5 4 4 4 4 4 3 2 2 1 1 4 4 2 3 4 4 5 6 3 1 3 5 5 6 6 6 7 10 12 13 13 13 13 11 8 9 8 6 3 2 2 2 3 3 4 5 5 5 5
Wind_Direction
141 135 134 116 107 116 110 100 102 90 79 79 100 97 96 96 89 90 88 85 80 72 71 64 69 95 124 119 88 24 360 30 34 37 93 187 232 135 69 54 46 19 44 63 337 279 326 183 122 95 77 58 58 41 34 43 48 52 53 45 43 43 41
118 122 122 121 119 118 111 103 91 88 79 66 72 93 88 87 83 84 84 79 66 66 65 78 65 51 46 74 91 86 72 61 43 46 65 93 153 151 190 191 171 74 109 132 180 125 162 128 105 113 107 89 63 43 36 39 48 54 58 51 41 42 34
134 127 131 125 125 128 112 102 97 92 89 89 74 69 81 78 77 79 79 72 68 61 53 60 73 73 61 64 59 70 80 94 86 78 68 94 94 83 52 80 121 140 156 144 133 113 86 36 127 108 80 104 81 60 56 50 41 61 58 54 50 47 47
147 142 138 135 133 135 124 115 108 96 85 94 96 82 70 79 81 74 74 70 60 54 54 54 46 52 64 72 76 75 65 49 76 93 98 96 108 92 103 85 74 55 61 81 78 139 142 132 127 111 104 99 104 97 71 57 47 63 62 55 49 44 45
153 155 154 150 149 141 133 125 117 115 110 107 106 104 87 77 83 81 78 76 63 52 51 42 44 58 68 75 76 67 69 60 64 77 85 95 95 94 78 76 77 75 71 64 48 39 142 135 128 123 116 115 101 96 103 89 78 69 60 58 56 54 49
154 154 152 147 150 144 140 132 134 125 127 134 127 120 109 103 101 103 91 78 72 57 48 49 52 35 55 72 80 84 78 71 62 65 77 57 47 76 83 68 71 75 74 55 27 55 66 121 133 124 115 120 115 113 105 100 86 68 59 61 60 54 51
157 153 152 150 150 142 140 141 141 137 141 141 140 128 125 122 100 85 93 90 81 79 71 66 55 42 32 65 78 83 86 87 95 92 93 92 80 72 73 83 70 73 66 55 62 88 117 146 142 132 126 110 117 117 109 98 85 91 66 56 54 57 54
158 160 154 144 143 141 140 137 129 133 141 141 133 123 133 124 118 120 115 116 113 107 101 91 81 70 49 55 61 52 50 38 61 82 93 100 98 88 76 82 82 72 62 59 57 60 86 115 144 140 141 129 116 109 111 99 88 65 80 64 47 56 55
150 141 132 129 128 131 138 142 137 138 132 129 122 132 128 132 132 130 128 120 124 124 118 112 103 92 78 75 70 56 59 27 56 58 58 68 79 86 91 94 90 80 71 68 66 58 54 55 99 151 161 149 138 130 124 110 94 77 40 78 69 50 54
160 160 157 155 153 144 139 152 141 141 137 145 142 142 132 123 124 129 126 123 120 119 116 111 108 105 103 98 92 87 76 49 53 53 29 57 69 83 91 86 93 95 86 79 78 77 69 65 71 84 266 187 157 142 147 122 99 95 58 27 70 56 48
170 159 147 149 149 145 141 137 126 144 159 153 152 148 142 134 133 134 123 115 108 113 113 110 109 113 114 104 106 99 86 86 96 86 59 62 63 62 63 72 91 100 91 88 86 72 73 66 66 69 85 156 251 172 143 133 105 68 85 61 48 61 46
160 137 138 141 151 152 151 152 152 144 129 136 154 152 149 137 129 120 123 123 123 120 128 121 129 123 121 117 122 116 112 105 101 109 106 94 88 72 82 78 66 82 74 93 103 95 87 82 79 74 69 80 100 115 130 130 126 86 18 81 73 55 54
162 151 146 149 157 162 145 137 131 136 143 138 115 99 114 117 116 118 116 113 113 118 117 120 125 115 114 101 113 112 117 144 123 109 119 124 121 129 121 124 100 97 101 117 108 100 92 75 59 75 72 77 82 87 113 117 113 118 80 71 92 93 70
157 146 144 152 159 155 142 141 142 137 137 132 133 143 139 128 119 109 100 95 106 118 121 121 125 131 116 90 67 41 105 174 177 141 151 152 159 186 131 123 126 103 336 113 115 124 109 101 95 84 85 87 90 89 101 109 114 119 120 93 92 92 72
156 151 150 151 153 155 155 152 148 148 140 142 161 146 139 133 131 127 116 112 106 96 109 113 119 112 115 123 115 106 341 312 284 216 188 195 165 171 186 178 145 144 175 127 141 140 134 138 124 115 106 104 106 109 105 108 109 123 131 161 139 135 111
160 156 152 151 157 162 159 152 157 150 146 145 157 156 149 145 129 122 120 126 128 121 114 113 94 73 76 76 89 126 163 191 248 266 266 257 225 178 196 199 182 168 171 165 160 140 155 157 139 119 116 107 112 118 127 120 125 123 137 126 147 135 112
161 158 157 157 158 165 165 163 164 154 150 155 161 165 157 146 128 123 127 128 124 130 140 164 142 119 273 295 248 259 256 254 237 244 267 282 275 239 236 218 203 187 184 183 173 172 181 174 171 144 145 134 136 134 129 148 118 120 137 135 163 144 126
146 152 158 164 165 167 168 159 151 140 145 154 155 153 147 137 141 149 137 146 149 164 173 173 221 265 255 214 256 249 246 265 278 271 257 254 256 259 249 239 230 203 200 208 182 197 183 185 188 176 171 161 154 145 151 158 137 133 133 127 136 138 154
114 149 192 182 174 169 163 163 149 142 149 149 154 172 155 160 164 165 146 157 181 180 160 218 262 278 284 269 240 222 217 229 244 265 272 265 258 245 243 240 225 207 208 219 211 203 198 199 191 195 179 182 160 162 162 156 165 143 131 128 141 147 181
165 173 182 190 170 163 166 160 153 146 153 161 167 167 161 152 168 150 142 162 185 185 181 176 205 258 271 267 265 257 235 227 228 233 244 250 248 248 248 247 240 223 220 223 220 211 201 201 191 195 184 179 183 171 161 149 186 154 136 137 131 130 145
151 166 173 166 156 160 157 158 146 135 145 154 153 158 162 183 172 158 144 154 145 153 155 173 228 245 256 262 261 257 253 245 249 249 254 253 245 241 240 241 242 238 233 229 231 224 206 205 197 203 188 180 166 164 160 165 208 188 154 151 151 150 143
157 169 164 161 166 162 153 141 136 139 150 164 167 147 164 185 176 141 116 126 138 140 157 166 235 270 269 270 268 266 253 248 256 273 272 268 257 253 249 247 246 245 234 237 240 238 222 212 205 210 185 175 170 180 176 186 198 198 180 170 152 151 164
164 168 160 177 170 153 151 150 152 156 163 167 138 126 137 150 155 150 141 126 123 115 98 145 84 338 307 294 285 285 288 284 279 274 276 272 264 252 347 285 258 243 237 232 237 261 275 245 240 259 183 178 186 191 188 194 201 210 211 217 174 158 231
168 189 172 170 147 144 147 149 154 153 145 141 137 138 141 142 142 138 147 140 118 102 89 69 52 57 193 246 260 268 275 282 277 271 269 275 280 255 249 257 276 269 245 229 213 226 228 228 230 251 278 221 199 187 186 197 204 219 231 238 127 156 129
171 187 206 138 120 114 121 136 141 144 153 158 151 150 148 146 147 141 124 93 95 101 102 61 54 66 42 263 243 246 259 272 275 276 279 280 291 291 292 290 291 286 256 243 190 225 216 217 215 211 194 190 179 15 19 165 158 161 183 172 164 155 175
161 164 154 118 127 133 138 145 152 157 154 145 138 131 117 117 114 106 106 106 90 81 84 48 40 51 60 11 314 254 237 257 271 276 288 296 306 314 312 300 302 311 327 126 207 207 202 166 168 153 133 110 92 95 91 63 34 3 191 220 191 175 217
105 92 102 116 127 127 128 114 113 103 111 123 121 114 117 115 117 117 111 107 114 122 127 121 228 131 118 117 157 218 92 307 311 314 318 322 317 316 315 309 311 314 333 334 348 182 177 162 151 147 151 144 111 84 67 68 73 49 27 22 249 262 120
84 77 73 74 79 80 80 84 82 84 100 107 118 119 119 120 109 124 131 134 117 104 90 91 32 88 107 114 137 161 71 65 42 17 358 342 327 321 320 312 303 318 339 333 13 345 174 159 155 149 139 119 104 84 69 53 36 40 53 43 46 56 84
72 71 74 79 86 87 80 83 101 94 92 85 74 87 77 77 101 99 93 128 132 117 114 111 79 97 109 123 141 93 86 82 77 69 58 38 19 11 4 357 1 39 29 28 55 28 27 153 151 143 126 112 105 93 73 55 42 42 44 54 63 70 81
58 52 65 92 98 105 113 112 108 129 120 123 121 112 101 94 90 94 100 91 96 110 108 37 25 80 124 156 165 108 117 107 91 83 58 39 41 40 31 23 55 67 66 59 44 69 62 144 138 127 121 116 113 113 101 79 45 43 50 62 63 65 72
138 134 136 136 136 139 143 151 153 176 153 147 139 134 139 127 114 93 89 86 50 63 82 41 6 19 106 194 240 110 107 100 98 92 89 61 60 64 50 31 24 86 84 79 70 80 75 140 127 125 130 133 130 110 97 78 81 59 58 63 61 63 73
150 152 155 161 159 151 153 142 125 150 129 132 128 143 147 134 127 113 84 78 65 32 71 72 41 13 21 186 236 119 117 111 110 99 104 92 80 85 79 57 44 55 77 85 76 70 57 75 107 99 103 114 116 113 93 125 112 114 147 191 185 183 183
168 165 162 160 167 160 149 148 156 151 123 138 141 136 140 127 127 107 99 97 102 54 48 65 51 22 1 316 292 302 127 123 122 124 117 118 110 96 93 87 71 67 76 74 73 68 58 50 84 92 97 105 118 108 118 115 69 19 143 310 302 272 287
192 180 172 170 169 164 168 158 149 147 142 119 103 106 102 105 99 96 83 80 109 95 36 5 65 30 23 311 226 278 164 109 132 140 136 135 129 123 109 90 90 62 69 70 71 70 66 52 44 62 53 68 58 69 75 123 96 285 289 263 267 276 276
249 203 176 161 165 177 167 155 160 146 126 135 140 142 152 151 150 135 140 153 146 135 100 38 338 81 31 340 242 278 288 163 161 147 145 136 130 119 107 104 96 82 85 84 80 77 74 71 66 76 71 79 80 76 97 106 153 243 279 289 300 294 288
224 234 184 179 181 178 174 176 170 165 158 162 166 165 171 170 171 166 163 163 150 138 112 121 28 12 82 248 192 205 252 181 216 207 160 150 134 122 114 110 103 92 90 90 88 85 86 89 81 80 90 83 77 103 234 31 345 306 310 302 294 289 287
224 221 212 191 197 181 176 182 176 177 177 174 173 172 174 174 183 186 190 177 170 159 145 141 93 36 73 119 156 162 145 131 162 208 132 130 124 120 127 113 108 105 95 90 84 79 73 71 86 85 82 88 100 43 358 333 313 318 298 290 289 294 295